Showing default

EKRAN 2, 10365

Orbit data source: Space-Track

EKRAN 2, 10365 is a payload satellite owned by MSvyaz (CIS) in GEO that was launched on Tue, 20 Sep 1977 UTC via a PROTON-K/DM launch vehicle from the Tyuratam Missile And Space Complex (TTMTR). Payload-class satellites include a variety of spacecraft equipped with specific instruments for various scientific and technological missions. These include communications satellites like Starlink; space stations such as the ISS; scientific satellites like the Hubble; Earth observation satellites from companies like Planet Labs, Umbra, and HawkEye 360; GPS; miniature CubeSats for education and research; and military/defense satellites.

Not visible in the next 10 days
Identifier
10365, 1977-092A
Orbit
GEO
Last TLE update
18 hours ago
Origin
Manufacturer
NPO PM
Mission
Non-operational Civil Communications
Bus & Motor
EKRAN, Unknown motor
Mass
2,000 kg wet, ~1,850 kg dry
Launch date (UTC)
1977-09-20 (48 years ago)
Launch vehicle
PROTON-K/DM
Launch site
Tyuratam Missile And Space Complex (TTMTR)
Object type
Payload
Rocket body
Debris
Shape & HBR
Cyl + 2 Pan + 1 Plate, 9 m
Radar Cross Section
17.622 m², Large (>1 m²)

Expand to show TLE details & history

TLE from 18 hours ago
0 EKRAN 2
1 10365U 77092A   25187.43375583  .00000042  00000-0  00000-0 0  9997
2 10365   5.1238 279.2713 0031807   2.4860 221.5714  1.00319511131385
Epoch: 2025-07-06T10:24Z
TLE epoch observation values (Epoch: 2025-07-06T10:24:36.503Z)
Latitude
-3.53371°
Longitude
62.15642°
Altitude
35,874.158 km
Speed
3.068 km/s
True Right ascension
09h 31m 51s
True Declination
-3° 31' 49"
Sunlit
Object was in daylight at epoch
Visualization orbit readout
Latitude
3.87338°
Longitude
-30.23707°
Altitude
35,856.267 km
Speed
3.069 km/s
Apparent Right ascension
03h 27m 11s
Apparent Declination
-1° 29' 23"
Sunlit
Object is in daylight
Visualization observer readout
Local Sidereal Time
16:09:39
Azimuth
16.784° NNE
Elevation
-50.38°
Doppler factor
1
Orbital elements
Apogee altitude
35,908.353 km
Perigee altitude
35,640.205 km
Semi-major axis
42,152.416 km
Eccentricity
0.00318
Inclination
5.1238°
RAAN
279.2713°
Arg. of periapsis
2.486°
True anomaly
Unknown
Mean anomaly
221.5714°
Eccentric anomaly
Unknown
Mean motion
0.25079 °/min
Orbital period
1,435.47 mins
BSTAR
0
Loading historical data...
10365 neighbors
Loading maneuver chart data...
Loading SW <> Apogee altitude chart data...
Loading historical data...
Loading historical data...
Loading historical data...
Loading historical data...
Loading historical data...
Loading historical data...
Loading historical data...

EKRAN 2 Visibility

Observer location: undefined°, undefined°

EKRAN 2 is likely not visible in the next few days
Span
Click to sort rows by Start time (UTC) header in descending order
Start Az.
Max El. time (UTC)
Max El. Az.
Max El.
End time (UTC)
End Az.
|